Location: Newark
(9.4667°S, 159.8167°E)
Time: 12:48:47
(UTC+00:00)

Courier 1B Rocket - Pass Details

Date: 27 November 2019
Orbit: 920 x 1202 km, 28.2° (Epoch: 12 December)

Event Time Altitude Azimuth Distance (km) Brightness Sun altitude
Rises 10:50:54 0° 288° (WNW) 4,064 8.5 -44.5°
Reaches altitude 10° 10:53:47 10° 285° (WNW) 3,118 7.9 -45.0°
Enters shadow 10:55:29 18° 281° (W) 2,578 7.4 -45.3°
Maximum altitude 11:01:28 59° 206° (SSW) 1,361 - -46.4°
Drops below altitude 10° 11:09:06 10° 128° (SE) 3,094 - -47.7°
Sets 11:11:57 0° 124° (ESE) 4,030 - -48.2°
